EW6466 Weather Reports


Display with metric or nautical units.
time (UTC)temp
F
wind
direction
speed
MPH
gust
MPH
rain 1hr
in
rain 24hr
in
rain mn
in
humidity
%
barometer
mb
20260831213038 94 155 9.0 19.0 0.00 0.00 0.00 40 1010.9
20260831211539 93 304 3.0 13.0 0.00 0.00 0.00 41 1011.0
20260831210034 93 207 6.0 14.0 0.00 0.00 0.00 41 1011.2
20260831204532 94 130 4.0 10.0 0.00 0.00 0.00 42 1011.3
20260831203030 95 117 3.0 14.0 0.00 0.00 0.00 40 1011.8
20260831201529 97 76 4.0 10.0 0.00 0.00 0.00 38 1011.8
20260831200039 95 198 5.0 12.0 0.00 0.00 0.00 40 1012.1
20260831194523 97 178 7.0 12.0 0.00 0.00 0.00 38 1012.5
20260831193034 95 176 4.0 8.0 0.00 0.00 0.00 40 1012.6
20260831191528 95 165 4.0 12.0 0.00 0.00 0.00 39 1012.7
20260831190020 95 227 4.0 16.0 0.00 0.00 0.00 42 1012.7
20260831184523 96 207 2.0 14.0 0.00 0.00 0.00 41 1012.9
20260831183018 96 184 2.0 8.0 0.00 0.00 0.00 41 1013.2
20260831181517 95 207 4.0 10.0 0.00 0.00 0.00 44 1013.2
20260831180024 94 196 5.0 15.0 0.00 0.00 0.00 45 1013.5
20260831174520 94 121 4.0 9.0 0.00 0.00 0.00 45 1013.5
20260831173009 93 170 2.0 8.0 0.00 0.00 0.00 47 1013.6
20260831171507 91 175 3.0 9.0 0.00 0.00 0.00 50 1013.7
20260831170003 92 188 3.0 9.0 0.00 0.00 0.00 50 1013.9
20260831164620 90 148 5.0 12.0 0.00 0.00 0.00 54 1013.9
20260831163058 90 198 4.0 11.0 0.00 0.00 0.00 54 1014.0
20260831161556 89 200 7.0 10.0 0.00 0.00 0.00 56 1014.1
20260831160051 88 173 4.0 13.0 0.00 0.00 0.00 59 1014.0
20260831154549 87 188 5.0 10.0 0.00 0.00 0.00 62 1013.8
20260831153044 85 185 4.0 11.0 0.00 0.00 0.00 65 1013.8
20260831151642 84 142 1.0 10.0 0.00 0.00 0.00 66 1013.9
20260831150044 83 199 4.0 9.0 0.00 0.00 0.00 69 1013.9
20260831144537 82 203 3.0 9.0 0.00 0.00 0.00 70 1013.7
20260831143037 81 174 4.0 9.0 0.00 0.00 0.00 72 1013.9
20260831141532 80 192 3.0 10.0 0.00 0.00 0.00 75 1014.0
20260831140031 79 174 1.0 6.0 0.00 0.00 0.00 78 1013.8
20260831134529 77 128 3.0 8.0 0.00 0.00 0.00 81 1013.7
20260831133027 76 67 3.0 6.0 0.00 0.00 0.00 84 1013.5
20260831131527 75 169 3.0 6.0 0.00 0.00 0.00 85 1013.5
20260831130026 74 169 0.0 2.0 0.00 0.00 0.00 85 1013.5
20260831124525 74 169 0.0 5.0 0.00 0.00 0.00 85 1013.4
20260831123025 74 171 0.0 4.0 0.00 0.00 0.00 85 1013.3
20260831121525 74 168 2.0 6.0 0.00 0.00 0.00 85 1013.2
20260831120035 74 184 4.0 9.0 0.00 0.00 0.00 85 1013.2
20260831114530 74 229 1.0 6.0 0.00 0.00 0.00 85 1013.1
20260831113020 75 218 3.0 8.0 0.00 0.00 0.00 84 1013.0
20260831111519 75 180 2.0 6.0 0.00 0.00 0.00 84 1013.0
20260831110021 75 47 3.0 9.0 0.00 0.00 0.00 84 1012.9
20260831104518 75 201 0.0 10.0 0.00 0.00 0.00 84 1013.0
20260831103017 75 213 4.0 8.0 0.00 0.00 0.00 84 1013.0
20260831101517 75 175 5.0 9.0 0.00 0.00 0.00 84 1013.1
20260831100015 75 211 2.0 6.0 0.00 0.00 0.00 84 1013.0
20260831094515 75 212 3.0 7.0 0.00 0.00 0.00 84 1012.9
20260831093027 75 187 3.0 10.0 0.00 0.00 0.00 83 1012.9
20260831091512 75 273 1.0 7.0 0.00 0.00 0.00 83 1012.9
20260831090012 75 262 3.0 9.0 0.00 0.00 0.00 82 1012.9
20260831084509 76 219 2.0 10.0 0.00 0.00 0.00 81 1013.0
20260831083008 76 218 2.0 6.0 0.00 0.00 0.00 80 1013.1
20260831081506 76 213 0.0 7.0 0.00 0.00 0.00 78 1013.3
20260831080006 76 242 1.0 9.0 0.00 0.00 0.00 78 1013.4
20260831074503 77 178 2.0 9.0 0.00 0.00 0.00 76 1013.5
20260831073002 77 129 1.0 7.0 0.00 0.00 0.00 75 1013.5
20260831071600 78 130 1.0 5.0 0.00 0.00 0.00 73 1013.4
20260831064554 79 99 1.0 4.0 0.00 0.00 0.00 70 1013.3
20260831063053 79 346 1.0 5.0 0.00 0.00 0.00 68 1013.2
20260831061551 79 15 2.0 10.0 0.00 0.00 0.00 68 1013.0
20260831060049 80 323 4.0 11.0 0.00 0.00 0.00 68 1013.0
20260831054546 80 216 3.0 10.0 0.00 0.00 0.00 68 1013.0
20260831053043 81 263 2.0 9.0 0.00 0.00 0.00 67 1012.8
20260831051539 81 186 3.0 9.0 0.00 0.00 0.00 66 1012.7
20260831050036 82 5 5.0 11.0 0.00 0.00 0.00 64 1012.5
20260831044536 82 165 4.0 9.0 0.00 0.00 0.00 63 1012.6
20260831043034 83 279 3.0 7.0 0.00 0.00 0.00 61 1012.5
20260831041534 83 5 4.0 11.0 0.00 0.00 0.00 60 1012.4
20260831040034 84 109 3.0 9.0 0.00 0.00 0.00 58 1012.4
20260831034535 83 55 2.0 12.0 0.00 0.00 0.00 58 1012.2
20260831033037 80 40 6.0 13.0 0.00 0.00 0.00 61 1012.0
20260831031532 79 46 0.0 2.0 0.00 0.00 0.00 60 1011.8
20260831030032 80 46 0.0 0.0 0.00 0.00 0.00 57 1011.7
20260831024531 82 46 0.0 0.0 0.00 0.00 0.00 55 1011.7
20260831023030 84 46 0.0 2.0 0.00 0.00 0.00 53 1011.4
20260831021530 85 46 1.0 3.0 0.00 0.00 0.00 50 1011.2
20260831020029 86 46 1.0 4.0 0.00 0.00 0.00 48 1011.0
20260831014528 87 47 2.0 4.0 0.00 0.00 0.00 47 1010.9
20260831013027 87 51 2.0 6.0 0.00 0.00 0.00 46 1010.6
20260831011526 88 49 3.0 7.0 0.00 0.00 0.00 46 1010.6
20260831010028 88 53 2.0 6.0 0.00 0.00 0.00 45 1010.6
20260831004526 89 36 2.0 8.0 0.00 0.00 0.00 45 1010.5
20260831003025 89 138 3.0 9.0 0.00 0.00 0.00 44 1010.4
20260831001524 90 114 5.0 10.0 0.00 0.00 0.00 44 1010.3
20260831000024 90 40 3.0 10.0 0.00 0.00 0.00 43 1010.2
20260830234529 91 66 3.0 9.0 0.00 0.00 0.00 44 1010.2
20260830233022 91 63 4.0 10.0 0.00 0.00 0.00 43 1010.3
20260830231522 92 57 6.0 14.0 0.00 0.00 0.00 42 1010.3
20260830230021 93 46 3.0 12.0 0.00 0.00 0.00 40 1010.2
20260830224520 93 130 5.0 12.0 0.00 0.00 0.00 39 1010.2
20260830223019 92 98 3.0 11.0 0.00 0.00 0.00 41 1010.4
20260830221518 93 66 4.0 10.0 0.00 0.00 0.00 41 1010.2
20260830220020 93 175 5.0 9.0 0.00 0.00 0.00 41 1010.2
20260830214517 93 183 2.0 11.0 0.00 0.00 0.00 40 1010.3